Regional Weather Roundup
Issued by NWS

Home | Current Version | Previous Version | Text Only | Print | Product List | Glossary Off
Versions: 1 2 3 4 5 6 7 8 9 10 11 12 13 14 15 16 17 18 19 20 21 22 23 24 25 26 27 28 29 30 31 32 33 34 35 36 37 38 39 40 41 42 43 44 45 46 47 48 49 50

000
ASUS45 KCYS 251510
RWRWY

WYOMING REGIONAL WEATHER ROUNDUP
NATIONAL WEATHER SERVICE CHEYENNE WY
900 AM MDT SAT APR 25 2015

NOTE:  "FAIR" INDICATES FEW OR NO CLOUDS BELOW 12,000 FEET
WITH NO SIGNIFICANT WEATHER AND/OR OBSTRUCTIONS TO VISIBILITY.

WYZ001-251600-
YELLOWSTONE NATIONAL PARK

CITY           SKY/WX    TMP DP  RH WIND       PRES   REMARKS
LK YELLOWSTONE   N/A     30  25  81 MISG      29.79R
W YELLOWSTONE  NOT AVBL

$$
WYZ002>013-054>058-071-098>099-251600-
NORTHERN WYOMING

CITY           SKY/WX    TMP DP  RH WIND       PRES   REMARKS
JACKSON        CLOUDY    37  34  87 S13G21    29.81R WCI  29
CODY           CLOUDY    37  36  93 N17       29.74R WCI  28
GREYBULL       LGT RAIN  41  39  93 NW20G29   29.69R
WORLAND        LGT RAIN  43  38  82 NW12      29.71R
SHERIDAN       CLOUDY    42  37  82 NW23      29.70R
BUFFALO        CLOUDY    44  40  85 N25G36    29.67R
GILLETTE       FAIR      54  40  59 S10       29.65R
HULETT         FAIR      59  36  41 S3        29.67S
NEWCASTLE      FAIR      52  37  58 SE8       29.70R

$$
WYZ014>020-022>026-101>103-251600-
CENTRAL WYOMING

CITY           SKY/WX    TMP DP  RH WIND       PRES   REMARKS
BIG PINEY      FAIR      37  30  75 CALM      29.81R
PINEDALE       FAIR      37  32  81 NW9       29.81R WCI  31
DUBOIS         CLOUDY    37  28  70 N10G17    29.76R WCI  30
LANDER         FAIR      48  36  63 NW9       29.68R
RIVERTON       FAIR      48  36  63 NW10      29.69R
CASPER         FAIR      50  35  56 SW24G31   29.68F
DOUGLAS        FAIR      52  41  66 SE5       29.71R

$$
WYZ021-027>030-104>119-251600-
SOUTHERN WYOMING

CITY           SKY/WX    TMP DP  RH WIND       PRES   REMARKS
EVANSTON       FAIR      34  30  85 SW8       29.83S WCI  27
KEMMERER       CLOUDY    36  32  87 SW9       29.83  WCI  29
FORT BRIDGER   SUNNY     39  28  65 W16G22    29.86R WCI  30
ROCK SPRINGS   FAIR      37  29  72 W15       29.82S WCI  28
DIXON          LGT RAIN  38  35  89 SE5       29.88R WCI  34
RAWLINS        PTSUNNY   41  33  73 SW18G28   29.80S
SARATOGA       CLOUDY    41  32  70 SW14      29.83F
LARAMIE        FAIR      43  32  65 SW17      29.79R
CHEYENNE       FAIR      55  31  39 NW9       29.75S
TORRINGTON     FAIR      50  43  77 SE6       29.70S
PINE BLUFFS    FAIR      52  37  58 CALM      29.74S

$$



USA.gov is the U.S. government's official web portal to all federal, state and local government web resources and services.